Weather History for Mobile Downtown, AL

Change the Weather History Date:

Friday, July 12, 2013

  Actual Average Record
Temperature  
Mean Temperature 80 °F -  
Max Temperature 89 °F 87 °F 96 °F (2000)
Min Temperature 72 °F 72 °F 71 °F (1999)
Cooling Degree Days 15    
Growing Degree Days 30 (Base 50)    
Moisture  
Dew Point 71 °F    
Average Humidity 81    
Maximum Humidity 96    
Minimum Humidity 61    
Precipitation  
Precipitation 0.00 in - - ()
Sea Level Pressure  
Sea Level Pressure 29.91 in    
Wind  
Wind Speed 5 mph (WNW)    
Max Wind Speed 10 mph    
Max Gust Speed -    
Visibility 10 miles    
Events Rain , Thunderstorm    
Averages and records for this station are not official NWS values.
T = Trace of Precipitation, MM = Missing Value Source: NWS Daily Summary

Daily Weather History Graph

Daily Weather History Graph

Search for Another Location

Airport:

Trip Planner

Search our weather history database for the weather conditions in past years. The results will help you decide how hot, cold, wet, or windy it might be!

Date:

Astronomy

Jul. 12, 2013 Rise Set
Actual Time 5:58 AM CDT 7:57 PM CDT
Civil Twilight 5:31 AM CDT 8:24 PM CDT
Nautical Twilight 4:58 AM CDT 8:57 PM CDT
Astronomical Twilight 4:23 AM CDT 9:32 PM CDT
Moon 9:54 AM CDT (7/12) 10:30 PM CDT (7/12)
Length of Visible Light 14h 53m
Length of Day
13h 58m
Waxing Crescent, 17% of the Moon is Illuminated
Jul 12
Waxing Crescent
Jul 15
First Quarter
Jul 22
Full
Jul 29
Last Quarter
Aug 6
New

Hourly Weather History & Observations

Time (CDT) Temp. Heat Index Dew Point Humidity Pressure Visibility Wind Dir Wind Speed Gust Speed Precip Events Conditions
12:17 AM 75.2 °F - 73.4 °F 94% 29.95 in 10.0 mi West 3.5 mph - N/A   Partly Cloudy
12:53 AM 75.0 °F - 73.9 °F 96% 29.94 in 10.0 mi West 4.6 mph - N/A   Partly Cloudy
1:53 AM 75.0 °F - 73.0 °F 94% 29.91 in 10.0 mi NW 3.5 mph - N/A   Clear
2:53 AM 73.0 °F - 72.0 °F 96% 29.91 in 10.0 mi NW 4.6 mph - N/A   Clear
3:26 AM 73.4 °F - 71.6 °F 94% 29.91 in 10.0 mi NW 5.8 mph - N/A   Clear
3:31 AM 73.4 °F - 71.6 °F 94% 29.91 in 10.0 mi NW 3.5 mph - N/A   Partly Cloudy
3:53 AM 73.0 °F - 71.1 °F 93% 29.91 in 10.0 mi NW 4.6 mph - N/A   Clear
4:53 AM 72.0 °F - 70.0 °F 93% 29.92 in 10.0 mi NW 4.6 mph - N/A   Clear
5:53 AM 72.0 °F - 70.0 °F 93% 29.94 in 10.0 mi NNW 6.9 mph - N/A   Scattered Clouds
6:53 AM 73.0 °F - 71.1 °F 93% 29.94 in 10.0 mi NNW 3.5 mph - N/A   Partly Cloudy
7:53 AM 75.9 °F - 71.1 °F 85% 29.94 in 10.0 mi NW 4.6 mph - N/A   Clear
8:53 AM 80.1 °F 83.6 °F 71.1 °F 74% 29.94 in 10.0 mi NNW 6.9 mph - N/A   Clear
9:53 AM 84.0 °F 88.4 °F 70.0 °F 63% 29.94 in 10.0 mi NNW 5.8 mph - N/A   Clear
10:53 AM 84.0 °F 89.6 °F 72.0 °F 67% 29.93 in 10.0 mi ENE 6.9 mph - N/A   Partly Cloudy
11:53 AM 86.0 °F 93.0 °F 73.0 °F 65% 29.92 in 10.0 mi ENE 6.9 mph - N/A   Scattered Clouds
12:53 PM 87.1 °F 93.6 °F 72.0 °F 61% 29.92 in 10.0 mi ESE 5.8 mph - N/A   Scattered Clouds
1:53 PM 88.0 °F 95.6 °F 73.0 °F 61% 29.90 in 10.0 mi SE 5.8 mph - N/A   Scattered Clouds
2:53 PM 88.0 °F 95.6 °F 73.0 °F 61% 29.88 in 10.0 mi South 6.9 mph - N/A   Clear
3:31 PM 84.2 °F 90.9 °F 73.4 °F 70% 29.88 in 10.0 mi South 4.6 mph - N/A Rain , Thunderstorm Light Thunderstorms and Rain
3:53 PM 82.0 °F 87.9 °F 73.9 °F 76% 29.89 in 10.0 mi SSW 3.5 mph - N/A Rain , Thunderstorm Light Thunderstorms and Rain
4:51 PM 77.0 °F - 69.8 °F 78% 29.88 in 10.0 mi WSW 10.4 mph - 0.00 in   Scattered Clouds
4:53 PM 77.0 °F - 70.0 °F 79% 29.88 in 10.0 mi West 8.1 mph - 0.00 in   Scattered Clouds
5:53 PM 75.9 °F - 66.9 °F 74% 29.88 in 10.0 mi WSW 4.6 mph - N/A   Clear
6:53 PM 79.0 °F - 70.0 °F 74% 29.87 in 10.0 mi SE 6.9 mph - N/A   Partly Cloudy
7:53 PM 78.1 °F - 71.1 °F 79% 29.90 in 10.0 mi Calm Calm - N/A   Clear
8:53 PM 75.9 °F - 71.1 °F 85% 29.90 in 10.0 mi WNW 3.5 mph - N/A   Clear
9:53 PM 75.0 °F - 71.1 °F 87% 29.90 in 10.0 mi Calm Calm - N/A   Clear
10:53 PM 73.9 °F - 70.0 °F 87% 29.93 in 10.0 mi Calm Calm - N/A   Clear
11:53 PM 72.0 °F - 70.0 °F 93% 29.92 in 10.0 mi Calm Calm - N/A   Clear